Flag for U.S.A. Weather past 2 weeks in Spartanburg, South Carolina, U.S.A.

Now
63 °F

Clear.


Feels Like: 63 °F
Forecast: 61 / 83 °F
Wind: No wind

Location: Spartanburg Memorial

Current Time: Oct 1, 2014 at 4:34:47 AM

Latest Report: Oct 1, 2014 at 4:15 AM


Visibility: 5 mi

Pressure: 29.93 "Hg

Humidity: N/A

Dew point: N/A

Location of SpartanburgLocation

Historic Weather in Spartanburg — Graph

°F

Spartanburg temperature yesterday

Maximum temperature yesterday: 84 °F (at 5:15 PM)
Minimum temperature yesterday: 59 °F (at 5:35 AM)
Average temperature yesterday: 70 °F

Past Weeks' High & Low Weather Summary

 TemperatureHumidityPressure
High88 °F (Sep 16, 2:55 PM)100% (Sep 16, 8:55 AM)30.35 "Hg (Sep 16, 8:55 AM)
Low55 °F (Sep 24, 12:15 AM)37% (Sep 30, 5:15 PM)29.85 "Hg (Sep 21, 5:35 PM)
Average70 °F78%30.09 "Hg
* Reported Sep 16 3:15 AM — Oct 1 3:35 AM, Spartanburg, Weather by CustomWeather, © 2014

Note: Actual official high and low records may vary slightly from our data, if they occured in-between our weather recording intervals... More about our weather records

Advertising

Spartanburg weather history for previous 24 hours

 ConditionsComfort  
Time TempWeatherWind HumidityBarometerVisibility
3:35 AM
Oct 1
63 °FClear.No windN/A29.93 "Hg5 mi
3:15 AM63 °FClear.No windN/A29.93 "Hg5 mi
2:55 AM64 °FClear.No windN/A29.93 "Hg7 mi
2:35 AM64 °FClear.No windN/A29.93 "Hg7 mi
2:15 AM64 °FClear.No windN/A29.93 "Hg10 mi
1:55 AM64 °FClear.No windN/A29.94 "Hg10 mi
1:35 AM64 °FClear.No windN/A29.94 "Hg10 mi
1:15 AM63 °FClear.No windN/A29.94 "Hg7 mi
12:55 AM64 °FClear.No windN/A29.94 "Hg7 mi
12:35 AM64 °FClear.No windN/A29.94 "Hg10 mi
12:15 AM64 °FClear.No wind100%29.94 "Hg10 mi
11:55 PM
Sep 30
64 °FPassing clouds.No wind100%29.94 "Hg10 mi
11:35 PM66 °FPassing clouds.No wind100%29.94 "Hg10 mi
11:15 PM68 °FPassing clouds.No wind100%29.94 "Hg10 mi
10:55 PM68 °FPassing clouds.No wind100%29.93 "Hg10 mi
10:35 PM68 °FPassing clouds.No wind100%29.93 "Hg10 mi
10:15 PM68 °FPassing clouds.No wind100%29.93 "Hg10 mi
9:55 PM70 °FPassing clouds.No wind88%29.92 "Hg10 mi
9:35 PM70 °FClear.No wind88%29.92 "Hg10 mi
9:15 PM68 °FClear.No wind100%29.91 "Hg10 mi
8:55 PM70 °FClear.No wind83%29.90 "Hg10 mi
8:35 PM70 °FClear.No wind88%29.90 "Hg10 mi
8:15 PM72 °FClear.No wind78%29.89 "Hg10 mi
7:55 PM73 °FSunny.No wind74%29.89 "Hg10 mi
7:35 PM73 °FSunny.No wind74%29.88 "Hg10 mi
7:15 PM77 °FSunny.No wind61%29.88 "Hg10 mi
6:55 PM79 °FSunny.No wind58%29.88 "Hg10 mi
6:35 PM81 °FSunny.No wind51%29.87 "Hg10 mi
6:15 PM82 °FSunny.No wind40%29.87 "Hg10 mi
5:55 PM82 °FScattered clouds.No wind40%29.87 "Hg10 mi
5:35 PM82 °FScattered clouds.No wind40%29.87 "Hg10 mi
5:15 PM84 °FScattered clouds.No wind37%29.87 "Hg10 mi
4:35 PM82 °FScattered clouds.No wind42%29.87 "Hg10 mi
4:15 PM81 °FScattered clouds.No wind42%29.87 "Hg10 mi
3:35 PM82 °FPartly sunny.3 mph45%29.88 "Hg7 mi
3:15 PM82 °FScattered clouds.No wind42%29.88 "Hg10 mi
2:55 PM82 °FScattered clouds.3 mph45%29.89 "Hg10 mi
2:35 PM82 °FScattered clouds.No wind45%29.89 "Hg7 mi
2:15 PM82 °FScattered clouds.5 mph45%29.90 "Hg10 mi
1:55 PM81 °FSunny.3 mph48%29.91 "Hg10 mi
1:35 PM82 °FSunny.6 mph48%29.92 "Hg7 mi
1:15 PM81 °FSunny.No wind51%29.93 "Hg7 mi
12:55 PM79 °FSunny.No wind54%29.93 "Hg5 mi
12:35 PM79 °FSunny.3 mph54%29.94 "Hg10 mi
12:15 PM77 °FSunny.No wind57%29.95 "Hg10 mi
11:35 AM73 °FSunny.No wind74%29.95 "Hg7 mi
11:15 AM72 °FSunny.No wind78%29.96 "Hg10 mi
10:35 AM70 °FSunny.No wind88%29.97 "Hg10 mi
10:15 AM68 °FSunny.No wind100%29.97 "Hg10 mi
9:35 AM64 °FSunny.No wind100%29.97 "Hg10 mi
9:15 AM64 °FSunny.No wind100%29.97 "Hg10 mi
8:55 AM61 °FSunny.No wind100%29.97 "Hg10 mi
8:35 AM61 °FFog.No wind100%29.97 "Hg5 mi
8:15 AM59 °FFog.No wind100%29.97 "Hg3 mi
7:55 AM59 °FFog.No wind100%29.96 "Hg0 mi
7:35 AM59 °FFog.No wind100%29.96 "Hg1 mi
7:15 AM59 °FFog.No wind100%29.95 "Hg1 mi
6:35 AM61 °FFog.No wind100%29.94 "Hg1 mi
6:15 AM59 °FFog.No wind100%29.94 "Hg4 mi
5:55 AM59 °FFog.No wind100%29.94 "Hg0 mi
5:35 AM59 °FClear.No windN/A29.94 "Hg5 mi
5:15 AM61 °FFog.No windN/A29.94 "Hg1 mi
4:55 AM61 °FFog.No wind100%29.94 "Hg1 mi
4:35 AM61 °FFog.No windN/A29.94 "Hg1 mi
4:15 AM61 °FClear.No windN/A29.95 "Hg4 mi
Weather by CustomWeather, © 2014

See weather overviewHow to use our weather pages